GW4807 Weather Reports


Display with metric or nautical units.
time (UTC)temp
F
wind
direction
speed
MPH
gust
MPH
rain 1hr
in
rain 24hr
in
rain mn
in
humidity
%
barometer
mb
20260904161656 92 131 1.0 1.0 0.00 0.00 0.00 55 1010.9
20260904161151 92 158 0.0 1.0 0.00 0.00 0.00 55 1011.0
20260904160647 92 165 1.0 1.0 0.00 0.00 0.00 55 1010.9
20260904160142 92 123 0.0 1.0 0.00 0.00 0.00 56 1010.8
20260904155637 92 193 4.0 5.0 0.00 0.00 0.00 56 1010.8
20260904155131 92 194 2.0 5.0 0.00 0.00 0.00 56 1010.8
20260904154630 91 170 2.0 2.0 0.00 0.00 0.00 57 1010.9
20260904154125 90 142 1.0 1.0 0.00 0.00 0.00 59 1011.1
20260904153620 90 150 2.0 3.0 0.00 0.00 0.00 59 1011.1
20260904153115 90 97 2.0 2.0 0.00 0.00 0.00 61 1011.1
20260904152612 89 134 0.0 0.0 0.00 0.00 0.00 63 1011.1
20260904152107 89 173 3.0 3.0 0.00 0.00 0.00 63 1011.3
20260904151602 89 160 3.0 3.0 0.00 0.00 0.00 64 1011.0
20260904151101 89 154 2.0 2.0 0.00 0.00 0.00 66 1011.2
20260904150556 88 154 3.0 3.0 0.00 0.00 0.00 68 1011.1
20260904150055 87 104 0.0 1.0 0.00 0.00 0.00 69 1010.7
20260904145555 86 134 1.0 1.0 0.00 0.00 0.00 70 1011.1
20260904145050 85 146 2.0 2.0 0.00 0.00 0.00 71 1011.1
20260904144546 85 114 1.0 1.0 0.00 0.00 0.00 72 1010.9
20260904144042 84 144 1.0 1.0 0.00 0.00 0.00 73 1011.2
20260904143537 84 128 2.0 2.0 0.00 0.00 0.00 74 1011.1
20260904143034 83 134 1.0 1.0 0.00 0.00 0.00 75 1011.1
20260904142530 83 136 1.0 1.0 0.00 0.00 0.00 76 1010.9
20260904142025 82 130 0.0 0.0 0.00 0.00 0.00 77 1011.0
20260904141520 82 134 2.0 2.0 0.00 0.00 0.00 77 1011.0
20260904141016 82 134 1.0 2.0 0.00 0.00 0.00 77 1011.3
20260904140511 82 127 0.0 0.0 0.00 0.00 0.00 78 1011.2
20260904140010 81 127 1.0 1.0 0.00 0.00 0.00 78 1011.1
20260904135504 81 120 0.0 0.0 0.00 0.00 0.00 79 1011.2
20260904135001 80 119 0.0 0.0 0.00 0.00 0.00 79 1011.1
20260904134501 80 116 1.0 1.0 0.00 0.00 0.00 79 1011.2
20260904133954 81 117 0.0 1.0 0.00 0.00 0.00 78 1011.3
20260904133449 80 121 0.0 0.0 0.00 0.00 0.00 79 1011.1
20260904132945 80 117 0.0 1.0 0.00 0.00 0.00 79 1011.3
20260904132440 80 116 0.0 1.0 0.00 0.00 0.00 80 1011.2
20260904131939 79 121 0.0 0.0 0.00 0.00 0.00 83 1011.0
20260904131435 78 121 0.0 0.0 0.00 0.00 0.00 84 1010.9
20260904130931 77 117 1.0 1.0 0.00 0.00 0.00 84 1010.9
20260904130429 76 122 0.0 0.0 0.00 0.00 0.00 88 1010.8
20260904125924 75 118 1.0 1.0 0.00 0.00 0.00 90 1010.8
20260904125421 73 118 0.0 0.0 0.00 0.00 0.00 95 1010.8
20260904124921 72 119 0.0 0.0 0.00 0.00 0.00 99 1010.7
20260904124417 71 122 0.0 0.0 0.00 0.00 0.00 99 1010.8
20260904123913 69 123 0.0 0.0 0.00 0.00 0.00 99 1010.8
20260904123412 69 123 0.0 0.0 0.00 0.00 0.00 99 1010.7
20260904122908 69 122 0.0 0.0 0.00 0.00 0.00 99 1010.7
20260904122407 68 124 0.0 0.0 0.00 0.00 0.00 99 1010.7
20260904121902 68 124 0.0 0.0 0.00 0.00 0.00 99 1010.7
20260904121358 68 123 0.0 0.0 0.00 0.00 0.00 99 1010.6
20260904120854 68 122 0.0 0.0 0.00 0.00 0.00 99 1010.7
20260904120351 68 123 0.0 0.0 0.00 0.00 0.00 99 1010.6
20260904115845 68 124 0.0 0.0 0.00 0.00 0.00 99 1010.6
20260904115340 68 123 0.0 0.0 0.00 0.00 0.00 99 1010.4
20260904114835 68 125 0.0 0.0 0.00 0.00 0.00 99 1010.6
20260904114329 68 123 0.0 0.0 0.00 0.00 0.00 99 1010.3
20260904113825 68 123 0.0 0.0 0.00 0.00 0.00 99 1010.4
20260904113324 68 123 0.0 0.0 0.00 0.00 0.00 99 1010.4
20260904112819 68 123 0.0 0.0 0.00 0.00 0.00 99 1010.3
20260904112314 68 123 0.0 0.0 0.00 0.00 0.00 99 1010.2
20260904111810 68 125 0.0 0.0 0.00 0.00 0.00 99 1010.2
20260904111306 68 125 0.0 0.0 0.00 0.00 0.00 99 1009.9
20260904110801 68 125 0.0 0.0 0.00 0.00 0.00 99 1010.0
20260904110259 68 125 0.0 0.0 0.00 0.00 0.00 99 1010.1
20260904105755 68 124 0.0 0.0 0.00 0.00 0.00 99 1010.2
20260904105250 68 124 0.0 0.0 0.00 0.00 0.00 99 1010.1
20260904104745 68 123 0.0 0.0 0.00 0.00 0.00 99 1010.1
20260904104240 68 123 0.0 0.0 0.00 0.00 0.00 99 1010.0
20260904103737 69 123 0.0 0.0 0.00 0.00 0.00 99 1010.1
20260904103232 69 123 0.0 0.0 0.00 0.00 0.00 99 1010.1
20260904102727 69 125 0.0 0.0 0.00 0.00 0.00 99 1009.9
20260904102223 69 125 0.0 0.0 0.00 0.00 0.00 99 1009.9
20260904101719 69 125 0.0 0.0 0.00 0.00 0.00 99 1009.9
20260904101215 69 125 0.0 0.0 0.00 0.00 0.00 99 1010.0
20260904100710 69 125 0.0 0.0 0.00 0.00 0.00 99 1010.0
20260904100206 69 125 0.0 0.0 0.00 0.00 0.00 99 1010.1
20260904095706 69 125 0.0 0.0 0.00 0.00 0.00 99 1009.9
20260904095200 69 125 0.0 0.0 0.00 0.00 0.00 99 1009.9
20260904094655 69 125 0.0 0.0 0.00 0.00 0.00 99 1009.7
20260904094150 69 125 0.0 0.0 0.00 0.00 0.00 98 1010.0
20260904093648 69 123 0.0 0.0 0.00 0.00 0.00 98 1010.0
20260904093147 69 123 0.0 0.0 0.00 0.00 0.00 98 1009.7
20260904092643 69 123 0.0 0.0 0.00 0.00 0.00 98 1009.5
20260904092139 69 123 0.0 0.0 0.00 0.00 0.00 98 1009.7
20260904091635 69 125 0.0 0.0 0.00 0.00 0.00 98 1009.8
20260904091134 69 123 0.0 0.0 0.00 0.00 0.00 98 1009.7
20260904090630 70 123 0.0 0.0 0.00 0.00 0.00 98 1009.5
20260904090126 70 123 0.0 0.0 0.00 0.00 0.00 98 1009.4
20260904085620 70 124 0.0 0.0 0.00 0.00 0.00 98 1009.6
20260904085120 70 125 0.0 0.0 0.00 0.00 0.00 98 1009.2
20260904084615 70 125 0.0 0.0 0.00 0.00 0.00 98 1009.3
20260904084112 70 125 0.0 0.0 0.00 0.00 0.00 97 1009.3
20260904083608 70 125 0.0 0.0 0.00 0.00 0.00 98 1009.3
20260904083103 70 125 0.0 0.0 0.00 0.00 0.00 98 1009.2
20260904082558 70 126 0.0 0.0 0.00 0.00 0.00 98 1009.2
20260904082048 70 125 0.0 0.0 0.00 0.00 0.00 97 1009.1
20260904081543 70 125 0.0 0.0 0.00 0.00 0.00 97 1009.1
20260904081039 70 125 0.0 0.0 0.00 0.00 0.00 97 1009.0
20260904080534 70 125 0.0 0.0 0.00 0.00 0.00 97 1009.1
20260904080030 70 125 0.0 0.0 0.00 0.00 0.00 96 1009.2
20260904075526 70 125 0.0 0.0 0.00 0.00 0.00 96 1009.3
20260904075021 70 125 0.0 0.0 0.00 0.00 0.00 96 1009.1
20260904074520 70 125 0.0 0.0 0.00 0.00 0.00 96 1009.1
20260904074020 70 125 0.0 0.0 0.00 0.00 0.00 96 1009.0
20260904073515 70 125 0.0 0.0 0.00 0.00 0.00 96 1009.3
20260904073012 70 125 0.0 0.0 0.00 0.00 0.00 96 1008.9
20260904072508 70 125 0.0 0.0 0.00 0.00 0.00 95 1009.0
20260904072007 70 125 0.0 0.0 0.00 0.00 0.00 95 1009.0
20260904071502 70 125 0.0 0.0 0.00 0.00 0.00 95 1009.1
20260904070957 70 125 0.0 0.0 0.00 0.00 0.00 95 1009.0
20260904070456 70 126 0.0 0.0 0.00 0.00 0.00 95 1009.0
20260904065951 70 125 0.0 0.0 0.00 0.00 0.00 94 1009.2
20260904065447 71 125 0.0 0.0 0.00 0.00 0.00 94 1009.1
20260904064942 71 125 0.0 0.0 0.00 0.00 0.00 94 1009.2
20260904064438 71 125 0.0 0.0 0.00 0.00 0.00 94 1009.2
20260904063933 71 125 0.0 0.0 0.00 0.00 0.00 94 1009.3
20260904063430 71 125 0.0 0.0 0.00 0.00 0.00 94 1009.3
20260904062924 71 126 0.0 0.0 0.00 0.00 0.00 93 1009.5
20260904062420 71 125 0.0 0.0 0.00 0.00 0.00 92 1009.6
20260904061916 71 125 0.0 0.0 0.00 0.00 0.00 92 1009.3
20260904061412 71 125 0.0 0.0 0.00 0.00 0.00 92 1009.4
20260904060908 71 125 0.0 0.0 0.00 0.00 0.00 92 1009.2
20260904060404 71 125 0.0 0.0 0.00 0.00 0.00 92 1009.3
20260904055859 71 125 0.0 0.0 0.00 0.00 0.00 92 1009.3
20260904055354 71 125 0.0 0.0 0.00 0.00 0.00 91 1009.4
20260904054850 72 125 0.0 0.0 0.00 0.00 0.00 91 1009.2
20260904054346 72 125 0.0 0.0 0.00 0.00 0.00 90 1009.1
20260904053841 72 125 0.0 0.0 0.00 0.00 0.00 90 1009.3
20260904053340 72 125 0.0 0.0 0.00 0.00 0.00 90 1009.5
20260904052836 72 125 0.0 0.0 0.00 0.00 0.00 89 1009.5
20260904052333 72 125 0.0 0.0 0.00 0.00 0.00 89 1009.4
20260904051829 73 125 0.0 0.0 0.00 0.00 0.00 89 1009.4
20260904051325 73 125 0.0 0.0 0.00 0.00 0.00 89 1009.6
20260904050825 73 125 0.0 0.0 0.00 0.00 0.00 88 1009.4
20260904050322 73 125 0.0 0.0 0.00 0.00 0.00 88 1009.2
20260904045821 73 125 0.0 0.0 0.00 0.00 0.00 87 1009.2
20260904045316 73 125 0.0 0.0 0.00 0.00 0.00 87 1009.2
20260904044811 74 125 0.0 0.0 0.00 0.00 0.00 86 1009.3
20260904044308 74 125 0.0 0.0 0.00 0.00 0.00 86 1009.2
20260904043803 74 125 0.0 0.0 0.00 0.00 0.00 86 1009.1
20260904043300 74 125 0.0 0.0 0.00 0.00 0.00 85 1009.2
20260904042754 75 126 0.0 0.0 0.00 0.00 0.00 84 1009.1
20260904042251 75 126 0.0 0.0 0.00 0.00 0.00 84 1008.9
20260904041750 75 127 0.0 0.0 0.00 0.00 0.00 84 1009.0
20260904041247 75 126 0.0 0.0 0.00 0.00 0.00 83 1009.3
20260904040742 75 126 0.0 0.0 0.00 0.00 0.00 83 1009.0
20260904040238 76 126 0.0 0.0 0.00 0.00 0.00 82 1009.3
20260904035734 76 126 0.0 0.0 0.00 0.00 0.00 82 1009.1
20260904035229 76 126 0.0 0.0 0.00 0.00 0.00 81 1009.1
20260904034728 76 127 0.0 0.0 0.00 0.00 0.00 81 1009.0
20260904034224 76 127 0.0 0.0 0.00 0.00 0.00 81 1009.0
20260904033720 76 127 0.0 0.0 0.00 0.00 0.00 81 1009.1
20260904033216 76 127 0.0 0.0 0.00 0.00 0.00 80 1009.1
20260904032712 77 127 0.0 0.0 0.00 0.00 0.00 80 1008.9
20260904032211 77 127 0.0 0.0 0.00 0.00 0.00 80 1009.1
20260904031711 77 128 0.0 0.0 0.00 0.00 0.00 80 1009.1
20260904031206 77 129 0.0 0.0 0.00 0.00 0.00 79 1009.1
20260904030657 77 127 0.0 0.0 0.00 0.00 0.00 79 1009.1
20260904030152 77 127 0.0 0.0 0.00 0.00 0.00 79 1009.2
20260904025648 77 127 0.0 0.0 0.00 0.00 0.00 78 1009.1
20260904025143 78 127 0.0 0.0 0.00 0.00 0.00 78 1009.0
20260904024639 78 127 0.0 0.0 0.00 0.00 0.00 78 1009.0
20260904024134 78 128 0.0 0.0 0.00 0.00 0.00 77 1009.2
20260904023629 78 127 0.0 0.0 0.00 0.00 0.00 76 1008.8
20260904023125 78 127 0.0 0.0 0.00 0.00 0.00 76 1008.8
20260904022625 79 127 0.0 0.0 0.00 0.00 0.00 75 1008.9
20260904022122 79 129 0.0 0.0 0.00 0.00 0.00 75 1008.9
20260904021617 79 128 0.0 0.0 0.00 0.00 0.00 74 1008.5
20260904021112 80 128 0.0 0.0 0.00 0.00 0.00 74 1008.7
20260904020609 80 129 0.0 0.0 0.00 0.00 0.00 74 1008.5
20260904015557 80 129 0.0 0.0 0.00 0.00 0.00 73 1008.4
20260904015056 80 129 0.0 0.0 0.00 0.00 0.00 72 1008.1
20260904014555 81 129 0.0 0.0 0.00 0.00 0.00 72 1008.4
20260904014051 81 129 0.0 0.0 0.00 0.00 0.00 71 1008.2
20260904013548 82 128 0.0 0.0 0.00 0.00 0.00 70 1008.0
20260904013044 82 129 0.0 0.0 0.00 0.00 0.00 70 1008.1
20260904012544 82 130 0.0 0.0 0.00 0.00 0.00 69 1008.2
20260904012044 83 128 0.0 0.0 0.00 0.00 0.00 68 1008.2
20260904011543 83 129 0.0 0.0 0.00 0.00 0.00 67 1007.9
20260904011039 84 129 0.0 0.0 0.00 0.00 0.00 66 1007.7
20260904010535 84 129 0.0 0.0 0.00 0.00 0.00 65 1007.7
20260904010031 84 129 0.0 0.0 0.00 0.00 0.00 64 1007.6
20260904005531 85 130 0.0 1.0 0.00 0.00 0.00 63 1007.8
20260904005026 86 129 0.0 0.0 0.00 0.00 0.00 62 1007.5
20260904004522 87 129 0.0 0.0 0.00 0.00 0.00 61 1007.6
20260904004022 87 131 0.0 0.0 0.00 0.00 0.00 59 1007.6
20260904003518 89 130 0.0 0.0 0.00 0.00 0.00 57 1007.6
20260904003013 90 129 0.0 1.0 0.00 0.00 0.00 55 1007.4
20260904002510 91 134 0.0 1.0 0.00 0.00 0.00 53 1007.4
20260904002009 91 120 0.0 0.0 0.00 0.00 0.00 52 1007.6
20260904001505 91 124 0.0 1.0 0.00 0.00 0.00 51 1007.3
20260904001004 92 116 0.0 1.0 0.00 0.00 0.00 50 1007.6
20260904000503 92 117 0.0 0.0 0.00 0.00 0.00 50 1007.3
20260903235959 93 119 1.0 2.0 0.00 0.00 0.00 49 1007.6
20260903235455 93 101 2.0 2.0 0.00 0.00 0.00 49 1007.4
20260903234954 94 113 1.0 1.0 0.00 0.00 0.00 49 1007.5
20260903234450 94 106 2.0 2.0 0.00 0.00 0.00 47 1007.3
20260903233946 95 90 3.0 3.0 0.00 0.00 0.00 46 1007.4
20260903233442 96 61 1.0 2.0 0.00 0.00 0.00 45 1007.3
20260903232937 97 71 1.0 2.0 0.00 0.00 0.00 44 1007.2
20260903232432 97 134 0.0 0.0 0.00 0.00 0.00 44 1007.2
20260903231932 97 169 2.0 2.0 0.00 0.00 0.00 43 1007.3
20260903231427 98 222 2.0 3.0 0.00 0.00 0.00 42 1007.3
20260903230921 98 77 1.0 1.0 0.00 0.00 0.00 43 1007.3
20260903230417 98 120 1.0 2.0 0.00 0.00 0.00 42 1007.4
20260903225914 97 130 1.0 1.0 0.00 0.00 0.00 44 1007.2
20260903225409 98 184 2.0 2.0 0.00 0.00 0.00 42 1007.2
20260903224905 99 60 3.0 3.0 0.00 0.00 0.00 42 1007.4
20260903224401 98 177 0.0 1.0 0.00 0.00 0.00 43 1007.3
20260903223857 97 80 1.0 2.0 0.00 0.00 0.00 44 1007.3
20260903223355 98 152 2.0 2.0 0.00 0.00 0.00 43 1007.5
20260903222850 99 119 3.0 5.0 0.00 0.00 0.00 41 1007.3
20260903222350 99 186 2.0 2.0 0.00 0.00 0.00 42 1007.3
20260903221845 98 96 1.0 1.0 0.00 0.00 0.00 43 1007.4
20260903221344 97 99 1.0 1.0 0.00 0.00 0.00 43 1007.3
20260903220842 98 64 1.0 2.0 0.00 0.00 0.00 43 1007.3
20260903220336 98 108 2.0 2.0 0.00 0.00 0.00 42 1007.2
20260903215834 99 64 2.0 2.0 0.00 0.00 0.00 41 1007.5
20260903215331 101 95 2.0 3.0 0.00 0.00 0.00 39 1007.3
20260903214829 101 62 2.0 3.0 0.00 0.00 0.00 39 1007.4
20260903214320 102 101 2.0 2.0 0.00 0.00 0.00 37 1007.4
20260903213814 102 121 1.0 2.0 0.00 0.00 0.00 39 1007.4
20260903213309 102 142 1.0 2.0 0.00 0.00 0.00 37 1007.6
20260903212805 102 106 3.0 3.0 0.00 0.00 0.00 39 1007.7
20260903212302 101 134 1.0 1.0 0.00 0.00 0.00 39 1007.5
20260903211800 100 329 2.0 3.0 0.00 0.00 0.00 40 1007.6
20260903211257 101 64 2.0 2.0 0.00 0.00 0.00 39 1007.5
20260903210752 102 91 2.0 5.0 0.00 0.00 0.00 38 1007.4
20260903210248 102 238 1.0 2.0 0.00 0.00 0.00 38 1007.6
20260903205747 101 310 2.0 3.0 0.00 0.00 0.00 38 1007.6
20260903205247 102 148 2.0 2.0 0.00 0.00 0.00 38 1007.7
20260903204742 102 136 1.0 1.0 0.00 0.00 0.00 38 1007.7
20260903204238 101 156 2.0 2.0 0.00 0.00 0.00 38 1007.6
20260903203734 100 48 1.0 2.0 0.00 0.00 0.00 40 1008.1
20260903203230 99 80 1.0 1.0 0.00 0.00 0.00 39 1008.0
20260903202723 100 68 5.0 6.0 0.00 0.00 0.00 38 1008.1
20260903202220 100 39 3.0 3.0 0.00 0.00 0.00 37 1007.9
20260903201719 101 250 3.0 5.0 0.00 0.00 0.00 38 1007.8
20260903201214 101 142 1.0 1.0 0.00 0.00 0.00 38 1008.0
20260903200708 101 139 1.0 2.0 0.00 0.00 0.00 38 1008.1
20260903200204 101 294 3.0 3.0 0.00 0.00 0.00 39 1008.2
20260903195659 101 235 3.0 5.0 0.00 0.00 0.00 38 1008.1
20260903195155 100 147 0.0 1.0 0.00 0.00 0.00 39 1008.2
20260903194654 99 75 1.0 2.0 0.00 0.00 0.00 39 1008.4
20260903194150 100 192 3.0 3.0 0.00 0.00 0.00 39 1008.4
20260903193645 101 185 3.0 5.0 0.00 0.00 0.00 39 1008.4
20260903193140 101 298 4.0 6.0 0.00 0.00 0.00 39 1008.5
20260903192637 100 78 3.0 3.0 0.00 0.00 0.00 39 1008.6
20260903192132 100 158 1.0 1.0 0.00 0.00 0.00 41 1008.6
20260903191628 99 158 2.0 2.0 0.00 0.00 0.00 41 1008.7
20260903191127 99 171 2.0 5.0 0.00 0.00 0.00 40 1008.7
20260903190627 100 77 3.0 3.0 0.00 0.00 0.00 40 1009.0
20260903190122 99 65 2.0 2.0 0.00 0.00 0.00 42 1009.0
20260903185617 98 90 1.0 1.0 0.00 0.00 0.00 42 1009.0
20260903185112 99 127 1.0 2.0 0.00 0.00 0.00 42 1009.0
20260903184608 99 132 1.0 1.0 0.00 0.00 0.00 41 1009.1
20260903184108 98 189 3.0 5.0 0.00 0.00 0.00 42 1008.9
20260903183608 98 207 2.0 2.0 0.00 0.00 0.00 43 1008.9
20260903183103 97 102 3.0 5.0 0.00 0.00 0.00 42 1009.2
20260903182601 97 90 1.0 1.0 0.00 0.00 0.00 43 1009.2
20260903182059 98 131 0.0 1.0 0.00 0.00 0.00 43 1009.2
20260903181556 97 167 4.0 5.0 0.00 0.00 0.00 44 1009.5
20260903181051 96 86 2.0 2.0 0.00 0.00 0.00 45 1009.5
20260903180546 96 123 2.0 2.0 0.00 0.00 0.00 46 1009.4
20260903180041 96 107 1.0 2.0 0.00 0.00 0.00 47 1009.6
20260903175540 96 312 3.0 6.0 0.00 0.00 0.00 46 1009.7
20260903175040 96 340 4.0 6.0 0.00 0.00 0.00 47 1009.6
20260903174535 96 134 1.0 2.0 0.00 0.00 0.00 47 1009.9
20260903174029 95 228 1.0 2.0 0.00 0.00 0.00 48 1009.9
20260903173523 95 322 4.0 5.0 0.00 0.00 0.00 48 1009.9
20260903173020 95 270 1.0 2.0 0.00 0.00 0.00 48 1009.9
20260903172514 95 122 1.0 1.0 0.00 0.00 0.00 48 1009.9
20260903172010 94 72 2.0 2.0 0.00 0.00 0.00 48 1010.0
20260903171505 93 205 2.0 2.0 0.00 0.00 0.00 51 1010.1
20260903171000 93 114 1.0 2.0 0.00 0.00 0.00 53 1010.2
20260903170459 93 107 2.0 2.0 0.00 0.00 0.00 54 1010.1
20260903165954 92 343 3.0 3.0 0.00 0.00 0.00 55 1010.1
20260903165453 92 269 3.0 5.0 0.00 0.00 0.00 55 1010.3
20260903164948 92 151 1.0 2.0 0.00 0.00 0.00 56 1010.2
20260903164444 91 1 2.0 5.0 0.00 0.00 0.00 56 1010.5
20260903163943 91 11 3.0 3.0 0.00 0.00 0.00 57 1010.5
20260903163439 91 188 6.0 9.0 0.00 0.00 0.00 57 1010.6
20260903162935 90 294 3.0 3.0 0.00 0.00 0.00 59 1010.8
20260903162431 91 165 5.0 8.0 0.00 0.00 0.00 58 1010.7